Regional Weather Roundup
Issued by NWS

Home | Current Version | Previous Version | Graphics & Text | Print | Product List | Glossary On
Versions: 1 2 3 4 5 6 7 8 9 10 11 12 13 14 15 16 17 18 19 20 21 22 23 24 25 26 27 28 29 30 31 32 33 34 35 36 37 38 39 40 41 42 43 44 45 46 47 48 49 50
000
ASUS43 KMPX 231601
RWRMN
WEATHER ROUNDUP FOR MINNESOTA
NATIONAL WEATHER SERVICE TWIN CITIES/CHANHASSEN MN
1100 AM CDT MON APR 23 2018


NOTE: "FAIR" INDICATES FEW OR NO CLOUDS BELOW 12,000 FEET WITH NO
SIGNIFICANT WEATHER AND/OR OBSTRUCTIONS TO VISIBILITY. N/A MEANS
CURRENT SKY AND/OR WEATHER CONDITIONS ARE NOT AVAILABLE.

MNZ060>063-068>070-231700-
   Twin Cities Metro

CITY           SKY/WX    TMP DP  RH WIND       PRES   REMARKS
TWIN CITIES    FAIR      62  34  35 SW7       30.23F
ST PAUL        FAIR      59  35  40 NE3       30.24F
CRYSTAL        FAIR      60  31  33 SW8       30.23S
BLAINE         SUNNY     63  34  34 SW6       30.23F
LAKEVILLE      FAIR      59  36  41 S3        30.23S
EDEN PRAIRIE   FAIR      59  35  40 SW6       30.23S
SOUTH ST PAUL  FAIR      62  32  32 W5        30.23S
LAKE ELMO      FAIR      61  36  39 S6        30.24S
$$
MNZ001>005-007-008-013>017-022>024-027-028-231700-
   Northwest Minnesota

CITY           SKY/WX    TMP DP  RH WIND       PRES   REMARKS
BEMIDJI        FAIR      59  38  45 W7        30.17S
HALLOCK        FAIR      54  37  54 N13G18    30.19S
ROSEAU         FAIR      54  39  58 NW12      30.16F
WARROAD        FAIR      55  37  50 NW14G21   30.16S
THIEF RVR FALL FAIR      56  35  45 N10       30.19S
CROOKSTON      FAIR      54  39  58 N9        30.20S
FOSSTON        FAIR      55  37  50 W3        30.19F
DETROIT LAKES  FAIR      57  39  51 SW6       30.20S
MOORHEAD       FAIR      55  43  62 SW6       30.20S
PARK RAPIDS    FAIR      60  39  45 W9        30.18F
MAHNOMEN       FAIR      56  39  54 W7        30.18S
$$
MNZ006-009>011-018-025>026-231700-
   North Central Minnesota

CITY           SKY/WX    TMP DP  RH WIND       PRES   REMARKS
BAUDETTE       FAIR      56  37  49 NW12      30.15R
FLAG ISLAND    FAIR      46  32  57 N9        30.13F
INTL FALLS     FAIR      58  38  47 VRB7      30.13S
WASKISH        CLOUDY    54  39  58 SW13      30.17S
BIG FORK       FAIR      59  39  47 SW5       30.16S
LONGVILLE      FAIR      61  37  41 SW7       30.18F
GRAND RAPIDS   FAIR      58  37  45 W9        30.20F
CRANE LAKE     PTSUNNY   54  36  50 S8        30.17R
ORR            PTSUNNY   55  34  44 SW6       30.13S
COOK           CLOUDY    55  37  50 SW9       30.16F
WALKER         FAIR      59  37  42 W13G21    30.17F
$$
MNZ012-019>021-037-231700-
   Northeast Minnesota

CITY           SKY/WX    TMP DP  RH WIND       PRES   REMARKS
DULUTH         FAIR      59  38  45 W14       30.20F
ELY            FAIR      57  34  41 SW10G16   30.15F
HIBBING        FAIR      59  36  42 W10       30.17F
EVELETH        FAIR      59  36  41 SW10      30.18F
DULUTH HARBOR  FAIR      57  39  51 SW9       30.21F
TWO HARBORS    FAIR      64  39  39 SW10G16   30.17F
SILVER BAY     FAIR      63  30  29 SW12      30.16F
GRAND MARAIS     N/A     38  30  73 SW9       30.19F
G MARAIS ARPRT FAIR      57  25  28 SW7       30.16F
$$
MNZ029>031-032-039>041-046>048-054>057-064-231700-
   West Central Minnesota

CITY           SKY/WX    TMP DP  RH WIND       PRES   REMARKS
FERGUS FALLS   FAIR      57  41  54 S3        30.18F
WHEATON        SUNNY     57  41  54 S3        30.22S
MORRIS         SUNNY     57  43  58 S6        30.21S
ALEXANDRIA     FAIR      61  39  44 SW9       30.22F
ELBOW LAKE     FAIR      57  42  56 SW7       30.21F
WADENA         FAIR      57  41  54 NW8       30.20F
GLENWOOD       FAIR      59  39  47 S7        30.22F
APPLETON       SUNNY     57  39  51 SE6       30.21S
BENSON         SUNNY     57  41  54 SW5       30.23F
ORTONVILLE     SUNNY     57  39  51 SE3       30.21S
MADISON        SUNNY     57  43  58 S3        30.21S
WILLMAR        FAIR      57  43  58 S5        30.25S
$$
MNZ033>034-036-042>043-049>051-058-059-231700-
   Central Minnesota

CITY           SKY/WX    TMP DP  RH WIND       PRES   REMARKS
ST CLOUD       FAIR      58  40  51 S7        30.23F
SAUK CENTRE    FAIR      57  40  52 SW5       30.22F
PAYNESVILLE    FAIR      58  42  54 S5        30.23F
AITKIN         FAIR      57  36  44 SW7       30.19F
PINE RIVER     FAIR      57  37  47 W7        30.22F
BRAINERD       FAIR      59  36  42 SW6       30.21F
STAPLES        FAIR      61  36  39 W7        30.21S
LONG PRAIRIE   FAIR      57  37  47 SW5       30.22S
LITTLE FALLS   FAIR      57  32  38 S3        30.22F
LITCHFIELD     FAIR      61  37  41 CALM      30.23F
BUFFALO        FAIR      56  35  43 SW3       30.24S
MAPLE LAKE     FAIR      59  39  46 CALM      30.24F
HUTCHINSON     FAIR      58  43  58 S6        30.24S
$$
MNZ037-044-045-052-053-231700-
   East Central Minnesota

CITY           SKY/WX    TMP DP  RH WIND       PRES   REMARKS
PRINCETON      FAIR      63  34  34 S7        30.23F
MORA           FAIR      55  37  50 W5        30.25S
CAMBRIDGE      FAIR      63  39  42 S6        30.24S
RUSH CITY      FAIR      59  33  37 S5        30.24S
MOOSE LAKE     FAIR      59  34  38 SW10      30.20F
HINCKLEY       FAIR      59  41  51 SW7       30.23F
CLOQUET        FAIR      59  30  33 SW13      30.20F
MCGREGOR       FAIR      59  36  41 SW8       30.21S
$$
MNZ071>073-080-081-089-090-097-098-231700-
   Southwest Minnesota

CITY           SKY/WX    TMP DP  RH WIND       PRES   REMARKS
MONTEVIDEO     SUNNY     61  43  51 CALM      30.22S
GRANITE FALLS  SUNNY     56  46  67 SE5       30.24S
CANBY          SUNNY     58  38  47 CALM      30.22S
MARSHALL       SUNNY     56  41  57 S5        30.22F
REDWOOD FALLS  SUNNY     54  43  66 S6        30.22F
OLIVIA         SUNNY     55  43  62 SW6       30.22S
PIPESTONE      SUNNY    N/A N/A N/A SW6       30.22R
WINDOM         SUNNY     57  34  41 S5        30.23S
WORTHINGTON    SUNNY     57  39  51 S8        30.23S
JACKSON        SUNNY     55  36  47 S5        30.24S
TRACY          SUNNY     55  41  61 S7        30.22S
SLAYTON        SUNNY     52  43  72 S5        30.23S
$$
MNZ065>067-074>077-082>085-091>093-231700-
   South Central Minnesota

CITY           SKY/WX    TMP DP  RH WIND       PRES   REMARKS
MANKATO        FAIR      58  38  47 SW7       30.24S
NEW ULM        SUNNY     55  41  58 CALM      30.23S
ST JAMES       SUNNY     50  39  66 S5        30.25S
FAIRMONT       SUNNY     48  39  71 S3        30.25R
GLENCOE        FAIR      55  41  58 S5        30.24S
OWATONNA       FAIR      59  36  41 CALM      30.24S
WASECA         FAIR      55  37  50 S6        30.25S
ALBERT LEA     FAIR      55  27  33 SE3       30.24S
$$
MNZ078>079-086>088-094>096-231700-
   Southeast Minnesota

CITY           SKY/WX    TMP DP  RH WIND       PRES   REMARKS
ROCHESTER      FAIR      56  33  42 SE8       30.25F
RED WING       FAIR      57  27  30 CALM      30.24S
STANTON        FAIR      60  35  37 S7        30.23S
DODGE CENTER   FAIR      55  36  47 S5        30.24F
WINONA         FAIR      59  28  31 E5        30.23F
AUSTIN         FAIR      55  30  38 CALM      30.24S
PRESTON        FAIR      54  33  45 E3        30.25F
$$
ABBREVIATIONS USED IN REMARKS
   TC - TEMPERATURES IN CELSIUS
  WCI - WIND CHILL INDEX
   HX - HEAT INDEX
  VSB - VISIBILITY
$$



USA.gov is the U.S. government's official web portal to all federal, state and local government web resources and services.